Powrót do katalogu

NOAA 16 DEB

AktywnySSO
NORAD 41537·DEBRIS·🇺🇸 United States

Wystrzelony Sep 21, 2000 z Vandenberg Space Force Base

Loading…

Następne Przeloty (najbliższe 24 godziny)

TLE

ŚwieżeSource: Space-Track

Epoka: Sep 14, 2026, 03:20 UTC

1 41537U 00055NM  26257.13954812  .00001320  00000-0  59239-3 0  9992
2 41537  98.5796 318.7135 0003759  54.8865 305.2666 14.24111722550287

Śledź NOAA 16 DEB w czasie rzeczywistym z AllMySat

Download on the App Store